N801XA OEAH-OEDF

Flight info

Callsign N801XA
Flight time 0h 21m
Altitude 11000
Route OEAH/34 N0304F110 DCT OVETA DCT RYDAN RYDA2J OEDF/34R
Aircraft B738/M-SDE3FGHIRWY/LB1

Departure

Time 2026-04-29 12:41
Airport Al-Ahsa International Airport (OEAH)

Arrival

Time 2026-04-29 13:02
Airport King Fahd International Airport (OEDF)
Time Latitude Longitude Altitude Speed Heading
2026-04-29 12:19 25.29375 49.48651 593 ft 0 kts 255°
2026-04-29 12:31 25.29369 49.48642 593 ft 3 kts 219°
2026-04-29 12:31 25.29344 49.48633 593 ft 4 kts 218°
2026-04-29 12:31 25.29330 49.48603 593 ft 5 kts 250°
2026-04-29 12:32 25.29313 49.48557 593 ft 8 kts 236°
2026-04-29 12:32 25.29241 49.48548 593 ft 14 kts 165°
2026-04-29 12:32 25.29138 49.48579 592 ft 16 kts 165°
2026-04-29 12:32 25.29035 49.48611 592 ft 15 kts 165°
2026-04-29 12:33 25.28937 49.48639 591 ft 14 kts 165°
2026-04-29 12:33 25.28842 49.48668 590 ft 15 kts 165°
2026-04-29 12:33 25.28737 49.48699 590 ft 16 kts 165°
2026-04-29 12:33 25.28631 49.48730 589 ft 15 kts 165°
2026-04-29 12:34 25.28530 49.48760 589 ft 15 kts 165°
2026-04-29 12:34 25.28432 49.48789 588 ft 15 kts 165°
2026-04-29 12:34 25.28314 49.48824 588 ft 20 kts 165°
2026-04-29 12:34 25.28179 49.48864 587 ft 20 kts 166°
2026-04-29 12:35 25.28047 49.48903 586 ft 19 kts 165°
2026-04-29 12:35 25.27920 49.48941 586 ft 19 kts 165°
2026-04-29 12:35 25.27796 49.48977 585 ft 18 kts 165°
2026-04-29 12:35 25.27677 49.49012 585 ft 17 kts 165°
2026-04-29 12:36 25.27561 49.49047 584 ft 17 kts 165°
2026-04-29 12:36 25.27450 49.49081 583 ft 16 kts 164°
2026-04-29 12:36 25.27359 49.49103 583 ft 13 kts 179°
2026-04-29 12:36 25.27280 49.49068 583 ft 12 kts 223°
2026-04-29 12:37 25.27254 49.49025 582 ft 3 kts 247°
2026-04-29 12:37 25.27253 49.49024 582 ft 0 kts 248°
2026-04-29 12:40 25.27251 49.49015 582 ft 5 kts 253°
2026-04-29 12:40 25.27255 49.48948 582 ft 11 kts 294°
2026-04-29 12:40 25.27323 49.48887 583 ft 17 kts 342°
2026-04-29 12:41 25.27641 49.48793 587 ft 82 kts 345°
2026-04-29 12:41 25.28409 49.48566 586 ft 144 kts 345°
2026-04-29 12:41 25.29500 49.48240 842 ft 171 kts 344°
2026-04-29 12:41 25.30665 49.47997 1479 ft 180 kts
2026-04-29 12:42 25.31860 49.48462 2147 ft 184 kts 28°
2026-04-29 12:42 25.33016 49.49113 2828 ft 196 kts 26°
2026-04-29 12:42 25.34283 49.49897 3123 ft 221 kts 32°
2026-04-29 12:42 25.35654 49.50845 3399 ft 241 kts 31°
2026-04-29 12:43 25.37156 49.51837 3669 ft 262 kts 30°
2026-04-29 12:43 25.38780 49.52846 4293 ft 271 kts 28°
2026-04-29 12:43 25.40443 49.53833 5205 ft 272 kts 27°
2026-04-29 12:43 25.42132 49.54804 6054 ft 275 kts 27°
2026-04-29 12:44 25.43848 49.55770 6865 ft 279 kts 26°
2026-04-29 12:44 25.45593 49.56737 7669 ft 282 kts 26°
2026-04-29 12:44 25.47339 49.57698 8452 ft 285 kts 26°
2026-04-29 12:44 25.49128 49.58680 9230 ft 289 kts 26°
2026-04-29 12:45 25.50945 49.59677 9476 ft 293 kts 26°
2026-04-29 12:45 25.52785 49.60618 9433 ft 288 kts 24°
2026-04-29 12:45 25.54604 49.61506 9417 ft 282 kts 23°
2026-04-29 12:45 25.56388 49.62372 9423 ft 279 kts 23°
2026-04-29 12:46 25.58164 49.63237 9438 ft 280 kts 24°
2026-04-29 12:46 25.59949 49.64111 9451 ft 281 kts 24°
2026-04-29 12:46 25.61734 49.64987 9444 ft 281 kts 24°
2026-04-29 12:46 25.63519 49.65866 9441 ft 280 kts 24°
2026-04-29 12:47 25.65300 49.66744 9443 ft 280 kts 24°
2026-04-29 12:47 25.67055 49.67610 9526 ft 279 kts 24°
2026-04-29 12:47 25.68830 49.68486 9700 ft 281 kts 24°
2026-04-29 12:47 25.70659 49.69272 9819 ft 283 kts 10°
2026-04-29 12:48 25.72596 49.69204 10001 ft 280 kts 342°
2026-04-29 12:48 25.74299 49.68180 10130 ft 281 kts 317°
2026-04-29 12:48 25.75605 49.66565 10152 ft 281 kts 308°
2026-04-29 12:48 25.76817 49.64861 10137 ft 281 kts 308°
2026-04-29 12:49 25.78031 49.63164 10133 ft 280 kts 308°
2026-04-29 12:49 25.79249 49.61481 10136 ft 279 kts 308°
2026-04-29 12:49 25.80472 49.59808 10136 ft 279 kts 310°
2026-04-29 12:49 25.82016 49.58508 10142 ft 284 kts 338°
2026-04-29 12:50 25.83961 49.58094 10150 ft 289 kts 359°
2026-04-29 12:50 25.85973 49.58135 10147 ft 288 kts
2026-04-29 12:50 25.87971 49.58235 10139 ft 287 kts
2026-04-29 12:50 25.89934 49.58341 10134 ft 286 kts
2026-04-29 12:51 25.91874 49.58439 10137 ft 285 kts
2026-04-29 12:51 25.93858 49.58532 10139 ft 287 kts
2026-04-29 12:51 25.95861 49.58621 10147 ft 288 kts
2026-04-29 12:51 25.97861 49.58705 10144 ft 288 kts
2026-04-29 12:52 25.99858 49.58787 10140 ft 287 kts
2026-04-29 12:52 26.01178 49.58840 10135 ft 287 kts
2026-04-29 12:52 26.03905 49.58948 9607 ft 296 kts
2026-04-29 12:52 26.05958 49.59029 9239 ft 295 kts
2026-04-29 12:53 26.08019 49.59111 8868 ft 295 kts
2026-04-29 12:53 26.10048 49.59190 8502 ft 295 kts
2026-04-29 12:53 26.12054 49.59269 8159 ft 294 kts
2026-04-29 12:53 26.14092 49.59349 7832 ft 292 kts
2026-04-29 12:54 26.16124 49.59429 7498 ft 291 kts
2026-04-29 12:54 26.18141 49.59512 7186 ft 290 kts
2026-04-29 12:54 26.20067 49.60088 6784 ft 287 kts 29°
2026-04-29 12:54 26.21531 49.61543 6355 ft 281 kts 55°
2026-04-29 12:55 26.22142 49.62804 6079 ft 278 kts 70°
2026-04-29 12:55 26.22640 49.64859 5667 ft 273 kts 77°
2026-04-29 12:55 26.23045 49.66911 5240 ft 269 kts 78°
2026-04-29 12:55 26.23449 49.68935 4820 ft 266 kts 77°
2026-04-29 12:56 26.23858 49.70934 4385 ft 263 kts 77°
2026-04-29 12:56 26.24269 49.72913 3961 ft 261 kts 77°
2026-04-29 12:56 26.24845 49.75488 3466 ft 254 kts 74°
2026-04-29 12:56 26.25172 49.76746 3273 ft 245 kts 74°
2026-04-29 12:57 26.25631 49.78484 3195 ft 224 kts 74°
2026-04-29 12:57 26.26050 49.80087 3158 ft 207 kts 74°
2026-04-29 12:57 26.26438 49.81582 3158 ft 202 kts 74°
2026-04-29 12:57 26.26826 49.83084 3167 ft 202 kts 74°
2026-04-29 12:58 26.27244 49.84590 3168 ft 204 kts 65°
2026-04-29 12:58 26.28173 49.85745 3177 ft 203 kts 29°
2026-04-29 12:58 26.29518 49.86166 3171 ft 203 kts 359°
2026-04-29 12:58 26.30902 49.85918 3179 ft 202 kts 345°
2026-04-29 12:59 26.32262 49.85506 3178 ft 203 kts 343°
2026-04-29 12:59 26.33650 49.85066 2731 ft 216 kts 343°
2026-04-29 12:59 26.35068 49.84623 2377 ft 204 kts 343°
2026-04-29 12:59 26.36386 49.84217 2110 ft 187 kts 343°
2026-04-29 13:00 26.37595 49.83844 1864 ft 174 kts 343°
2026-04-29 13:00 26.38715 49.83499 1683 ft 159 kts 343°
2026-04-29 13:00 26.39755 49.83178 1440 ft 152 kts 343°
2026-04-29 13:00 26.40767 49.82866 1262 ft 154 kts 343°
2026-04-29 13:01 26.41803 49.82547 1046 ft 155 kts 343°
2026-04-29 13:01 26.42844 49.82225 824 ft 155 kts 343°
2026-04-29 13:01 26.43886 49.81904 515 ft 154 kts 344°
2026-04-29 13:01 26.44914 49.81590 241 ft 153 kts 343°
2026-04-29 13:02 26.45922 49.81278 89 ft 142 kts 346°
2026-04-29 13:02 26.46772 49.81016 91 ft 106 kts 345°
2026-04-29 13:02 26.47361 49.80832 85 ft 74 kts 345°
2026-04-29 13:02 26.47709 49.80726 84 ft 34 kts 345°
2026-04-29 13:03 26.47874 49.80681 85 ft 21 kts 359°
2026-04-29 13:03 26.47931 49.80746 86 ft 8 kts 74°
2026-04-29 13:03 26.47945 49.80802 85 ft 3 kts 75°
2026-04-29 13:03 26.47945 49.80803 85 ft 0 kts 75°
2026-04-29 13:05 26.47946 49.80805 85 ft 1 kts 75°
2026-04-29 13:05 26.47953 49.80836 88 ft 8 kts 75°
2026-04-29 13:05 26.47974 49.80919 85 ft 12 kts 75°
2026-04-29 13:05 26.47997 49.81012 86 ft 12 kts 74°
2026-04-29 13:06 26.47991 49.81096 88 ft 12 kts 141°
2026-04-29 13:06 26.47915 49.81125 86 ft 12 kts 164°
2026-04-29 13:06 26.47849 49.81146 86 ft 3 kts 164°
2026-04-29 13:06 26.47832 49.81161 86 ft 3 kts 122°
2026-04-29 13:07 26.47837 49.81186 84 ft 3 kts 63°
2026-04-29 13:07 26.47859 49.81190 86 ft 4 kts 343°
2026-04-29 13:07 26.47875 49.81185 94 ft 0 kts 344°